Weather in Zrykh

Russia / Republic of Dagestan     41°29′47″N   47°33′47″E
temp.,
°C
wind,
m/s
gust,
m/s
humid.,
%
clouds,
%
prec.,
mm/h
press.,
hPa
HPBL,
m
20 april, tue
tue2000:00+7w445799 0.0 101849
03:00+6wsw555793 0.0 101856
06:00+7w4568100 0.0 101774
09:00+14wsw484661 0.0 10141223
12:00+16wsw41235100 0.0 10132058
15:00+16wsw41136100 0.0 10122136
18:00+13sw3353100 0.0 101349
21:00+9wsw3377100 0.7 101670
21 april, wed
wed2100:00+8wsw346831 0.1 101644
03:00+8w447525 0.1 101660
06:00+8w336227 0.0 101653
09:00+16wsw311368 0.0 10142434
12:00+18sw7133139 0.0 10132687
15:00+17sw49312 0.0 10122148
18:00+10sse3473100 2.3 1017282
21:00+8s227544 2.7 101837
22 april, thu
thu2200:00+7sw227663 0.0 101827
03:00+7sw337444 0.1 101829
06:00+8wsw237195 0.1 101848
09:00+15ssw310373 0.1 10152452
12:00+16sw410339 0.1 10152610
15:00+14se35446 0.1 10151444
18:00+9sse2373100 0.9 1017327
21:00+7sse1287100 1.1 101891
23 april, fri
fri2300:00+6sw228628 0.8 101630
03:00+6wsw33823 0.9 101540
06:00+6wsw33843 0.0 1016108
09:00+10s24594 0.2 1014971
12:00+12sse29393 0.2 10142138
15:00+11s19383 0.2 10152014
18:00+7ssw23563 0.0 1018417
21:00+4wsw22743 0.0 102058
24 april, sat
sat2400:00+3wsw22660 0.0 102036
03:00+2w33606 0.0 101937
06:00+4w34591 0.0 101896
09:00+10wsw244040 0.0 10151125
12:00+13wsw27312 0.0 10141961
15:00+12wsw26332 0.0 10151672
18:00+9ssw12515 0.0 1017142
21:00+6wsw22587 0.0 101923